Temp
54 44 42 47 51 54 52 48 46 48 58 55 54 54 56 60 61 61 62 63 64 61 65 62 61 59 57 57 57 57 57 59 59 58 58 58 59 60 61 62 64 64 63 65
48 43 52 56 54 52 51 47 47 53 58 57 55 55 56 60 61 64 65 63 63 60 61 60 58 57 57 57 56 56 57 60 60 59 58 58 59 61 61 61 63 63 62 64
45 50 57 54 51 50 49 47 47 48 55 58 53 52 54 60 62 67 71 66 64 62 59 58 57 56 55 56 56 57 57 59 59 60 59 59 59 61 59 60 59 61 61 63
48 56 54 52 50 51 44 54 53 52 48 41 53 39 51 56 59 64 68 70 61 62 62 59 57 55 55 56 57 57 57 57 58 60 59 58 59 59 60 60 60 58 59 60
46 49 50 49 52 55 48 55 53 52 47 42 44 40 43 54 54 59 65 70 61 62 62 59 57 57 56 57 57 57 57 57 58 59 60 58 58 59 60 60 58 58 59 60
49 56 53 53 57 57 59 52 52 51 45 36 43 42 41 46 55 59 67 71 65 62 62 61 59 57 55 56 58 57 57 57 59 59 60 59 57 57 57 58 57 57 58 59
45 48 54 56 49 53 51 44 34 32 30 32 47 43 47 55 62 63 65 69 70 67 61 58 55 55 55 55 57 58 57 58 59 59 60 59 58 58 58 58 57 57 57 57
35 33 48 54 50 46 47 45 32 29 27 33 48 38 45 58 63 66 68 67 63 61 61 59 57 56 56 56 57 58 58 59 60 60 57 59 60 59 59 59 59 58 58 57
37 37 52 54 56 54 48 43 50 39 39 32 38 44 53 59 59 62 66 65 61 61 61 59 59 57 57 57 57 57 58 60 60 60 60 59 59 58 59 60 60 59 59 58
46 37 51 53 54 54 51 54 41 40 31 28 35 38 41 50 54 59 61 60 62 63 63 61 60 58 58 58 59 58 59 61 61 61 61 61 59 58 58 59 59 59 58 58
44 42 42 49 43 43 45 46 45 45 39 33 28 35 51 51 55 56 57 62 61 62 62 63 62 60 59 59 58 58 59 60 61 61 61 61 60 59 57 58 58 59 59 59
44 40 35 45 49 51 48 47 48 36 35 38 35 38 57 54 58 57 56 62 64 64 65 65 65 61 59 58 58 58 59 60 61 62 61 61 61 60 58 57 57 59 58 58
41 35 31 40 45 46 44 47 50 46 43 36 33 37 56 56 55 57 57 58 62 62 59 58 61 61 59 59 59 59 59 59 60 61 62 61 60 60 59 57 58 59 59 58
44 37 34 30 36 41 38 43 46 43 34 37 40 45 49 52 53 57 57 57 56 61 60 57 57 58 59 60 60 60 60 60 60 60 60 60 60 60 60 59 58 58 59 57
41 35 38 40 43 45 41 43 42 38 38 34 42 45 48 53 56 54 56 59 57 59 59 59 59 56 59 60 60 60 60 61 60 59 59 59 60 61 60 59 58 59 59 59
43 35 37 33 42 43 41 44 44 44 41 42 45 45 55 57 55 52 55 57 56 56 58 58 59 60 59 60 60 62 61 61 60 59 58 59 59 60 60 59 58 58 58 59
37 35 32 29 38 39 31 39 44 46 47 45 40 45 54 51 52 52 51 54 55 56 57 56 56 57 58 56 57 58 61 61 61 60 60 59 59 59 59 59 58 58 57 58
36 34 30 26 32 23 41 51 49 45 46 47 47 49 51 52 53 54 54 52 52 55 54 54 54 54 53 53 54 56 61 63 61 61 61 60 59 59 59 58 58 57 53 48
40 33 25 23 24 34 42 46 44 43 41 48 46 49 51 53 52 50 55 54 53 52 52 52 52 53 51 50 51 51 51 54 62 62 61 61 60 59 59 57 56 44 42 40
39 36 28 25 23 20 39 46 50 49 34 49 49 48 48 50 37 43 51 53 50 50 49 49 50 50 48 47 49 47 46 46 46 49 57 57 58 58 56 46 42 40 39 36
28 26 26 23 22 31 44 50 51 34 35 49 50 48 48 45 46 50 51 48 48 46 46 47 47 46 45 46 46 43 43 42 44 45 48 47 48 46 43 40 38 36 34 33
29 24 21 25 22 23 49 49 40 44 46 48 48 48 47 48 49 48 46 44 42 41 42 44 43 44 42 43 44 41 40 41 42 41 41 42 43 41 39 37 35 35 34 32
28 33 30 32 32 45 48 47 51 52 49 46 47 48 48 47 46 46 42 40 39 38 39 40 40 41 40 41 41 39 39 40 39 38 37 37 37 37 36 34 33 32 33 32
37 39 37 36 43 43 44 49 53 54 48 48 49 47 47 43 43 41 39 37 35 34 34 36 37 38 37 38 38 38 38 38 37 35 35 35 34 34 35 34 34 32 31 30
36 39 38 38 42 45 47 49 48 50 51 48 45 44 43 41 38 38 35 34 33 32 34 34 34 34 36 37 36 37 36 35 32 31 30 30 29 29 29 29 29 29 30 29
40 35 34 33 41 40 44 48 51 48 47 46 43 39 39 39 39 37 33 33 31 29 31 31 32 32 33 35 34 34 35 34 31 29 29 28 28 28 28 28 27 30 29 30
MSLP
1006.58 1006.72 1006.14 1006.43 1006.47 1006.60 1006.94 1006.64 1005.89 1005.56 1005.18 1004.78 1004.40 1003.50 1003.00 1002.16 1001.57 1001.30 1000.79 1000.39 1000.86 1001.69 1002.29 1003.14 1003.77 1004.66 1005.50 1006.12 1006.41 1006.56 1007.22 1007.59 1008.09 1008.67 1008.93 1009.09 1008.88 1009.14 1008.97 1008.70 1009.13 1009.66 1010.16 1011.39
1007.11 1005.35 1005.81 1006.19 1006.24 1006.60 1006.68 1006.47 1005.40 1005.40 1005.24 1004.89 1004.23 1002.55 1002.34 1001.60 1001.14 1000.93 1000.45 1000.22 1000.32 1001.37 1002.83 1003.67 1004.20 1004.89 1005.32 1005.62 1006.32 1006.42 1007.09 1007.43 1007.88 1008.40 1008.71 1008.90 1009.01 1009.06 1009.17 1008.91 1009.17 1009.66 1010.17 1011.30
1006.11 1004.93 1004.81 1005.46 1005.63 1006.08 1005.91 1005.68 1005.51 1005.25 1005.04 1004.40 1003.96 1002.23 1001.91 1001.09 1000.74 1000.12 999.67 999.64 1000.11 1000.59 1001.95 1003.29 1004.01 1004.57 1005.04 1005.30 1006.03 1006.14 1006.83 1007.23 1007.73 1008.16 1008.57 1008.88 1009.03 1009.20 1009.42 1009.24 1009.27 1010.09 1010.76 1011.33
1005.48 1004.64 1004.80 1004.78 1004.63 1005.29 1005.01 1004.68 1004.66 1004.93 1005.13 1004.54 1003.60 1001.95 1001.97 1001.27 1000.30 999.71 999.27 999.01 999.64 1000.28 1001.08 1002.54 1003.56 1004.15 1004.54 1005.04 1005.65 1005.91 1006.54 1007.12 1007.64 1007.92 1008.36 1008.53 1008.50 1008.80 1009.18 1009.28 1009.52 1010.56 1011.18 1011.74
1003.77 1003.53 1003.56 1003.68 1003.40 1004.15 1003.70 1003.94 1004.26 1004.36 1004.39 1004.33 1004.03 1003.57 1001.47 1001.02 1000.29 999.20 998.27 998.02 998.70 999.56 1000.34 1001.32 1002.24 1003.20 1004.18 1004.86 1005.47 1005.69 1006.23 1006.90 1007.46 1007.72 1007.99 1008.24 1008.37 1008.76 1009.11 1009.63 1010.35 1010.91 1011.61 1011.81
1003.82 1003.38 1003.25 1002.86 1002.86 1003.03 1003.36 1003.93 1004.09 1004.06 1004.39 1004.18 1003.78 1003.65 1001.25 1000.73 999.53 998.64 997.86 997.34 997.71 998.92 1000.02 1001.30 1002.33 1003.24 1004.09 1004.74 1005.22 1005.38 1005.88 1006.48 1007.12 1007.54 1007.92 1008.15 1008.49 1008.70 1009.30 1009.78 1010.43 1011.22 1011.79 1012.14
1004.05 1002.87 1002.72 1002.92 1002.89 1002.74 1003.18 1003.72 1004.26 1004.37 1004.58 1003.94 1003.36 1002.99 1000.99 1000.19 999.10 998.25 997.06 996.61 996.50 997.19 999.00 1000.40 1001.63 1002.80 1003.72 1004.25 1004.74 1005.04 1005.48 1005.91 1006.77 1007.26 1007.66 1008.08 1008.58 1008.96 1009.27 1009.69 1010.36 1010.97 1011.78 1012.29
1004.18 1003.14 1002.04 1001.56 1001.64 1002.10 1002.20 1002.91 1003.46 1003.98 1004.26 1003.97 1003.34 1002.25 1000.83 999.71 998.66 996.65 995.98 996.30 996.58 997.27 998.47 999.49 1000.67 1002.08 1003.08 1003.60 1004.18 1004.61 1005.21 1005.65 1006.45 1006.96 1007.48 1007.87 1008.30 1008.97 1009.46 1009.82 1010.40 1011.07 1011.42 1012.09
1003.62 1002.72 1001.02 1000.47 1000.43 1001.36 1001.27 1001.86 1002.17 1003.15 1003.52 1003.87 1003.13 1001.94 1000.36 999.35 998.62 997.93 997.06 997.13 997.01 997.62 998.63 999.50 1000.46 1001.75 1002.46 1002.91 1003.43 1003.97 1004.68 1005.16 1006.14 1006.63 1007.19 1007.67 1008.21 1008.81 1009.26 1009.83 1010.52 1011.00 1011.60 1012.18
1003.55 1002.62 1001.11 1000.38 1000.24 1000.59 1000.56 1000.97 1001.86 1002.38 1003.16 1003.53 1002.88 1001.95 1000.92 999.99 999.47 999.36 998.79 998.63 998.58 999.29 998.98 999.39 1000.04 1000.84 1001.65 1002.31 1003.02 1003.63 1004.15 1004.59 1005.51 1006.31 1006.76 1007.30 1007.99 1008.66 1009.16 1009.70 1010.31 1010.91 1011.63 1012.07
1004.69 1003.16 1002.01 1001.11 1000.86 1000.52 1000.72 1000.81 1001.20 1001.69 1002.53 1002.97 1002.98 1001.58 1000.25 1000.04 999.85 1000.61 1000.40 999.79 999.68 999.80 1000.00 1000.38 999.48 1000.26 1001.04 1002.02 1002.64 1003.22 1003.70 1004.22 1005.03 1005.77 1006.37 1006.88 1007.52 1008.29 1008.93 1009.40 1009.96 1010.50 1011.25 1011.76
1006.66 1004.73 1002.84 1001.75 1001.29 1000.91 1000.38 1000.73 1001.09 1001.70 1002.66 1002.92 1002.79 1001.73 1000.37 1000.23 1000.07 1001.09 1001.13 1000.22 1000.03 1000.03 999.34 998.98 1000.07 1000.61 1000.67 1001.53 1002.31 1002.77 1003.33 1003.83 1004.41 1005.16 1005.89 1006.44 1006.97 1007.60 1008.29 1008.98 1009.55 1010.09 1010.66 1011.32
1008.39 1006.17 1004.13 1002.25 1002.31 1001.52 1001.54 1001.79 1001.36 1001.50 1002.23 1002.79 1002.82 1002.38 1001.16 1000.66 1000.99 1001.07 1000.79 1001.39 1002.03 1001.52 1000.96 1000.15 1000.31 1001.52 1001.75 1000.99 1001.79 1002.32 1002.69 1003.06 1003.86 1004.66 1005.30 1005.94 1006.52 1007.09 1007.69 1008.39 1009.11 1009.67 1010.18 1010.72
1008.66 1007.70 1005.15 1004.22 1003.70 1003.54 1002.93 1002.57 1002.85 1002.86 1003.15 1003.10 1002.67 1002.09 1001.71 1001.53 1001.39 1001.68 1001.70 1001.73 1002.65 1002.66 1002.19 1001.78 1001.61 1001.81 1002.24 1002.84 1002.58 1001.43 1001.90 1002.26 1002.97 1003.97 1004.68 1005.17 1005.79 1006.46 1007.17 1007.95 1008.71 1009.37 1009.87 1010.49
1008.32 1007.34 1006.18 1005.26 1004.37 1003.82 1003.34 1003.11 1003.48 1003.72 1003.87 1003.40 1002.72 1002.13 1001.32 1000.89 1001.28 1002.15 1002.55 1002.33 1002.29 1003.46 1003.04 1002.50 1002.18 1001.93 1002.02 1001.98 1002.29 1003.21 1002.45 1001.82 1002.73 1003.35 1003.81 1004.28 1005.07 1005.85 1006.62 1007.43 1008.12 1008.78 1009.41 1010.02
1007.74 1007.16 1006.91 1005.97 1004.84 1004.24 1003.84 1003.36 1002.94 1003.07 1003.52 1003.46 1002.78 1002.40 1001.65 1001.08 1001.98 1002.55 1003.07 1003.09 1003.58 1004.13 1003.99 1003.76 1003.31 1003.07 1002.82 1002.46 1002.29 1002.30 1002.43 1003.22 1003.03 1002.88 1003.19 1003.50 1004.13 1004.97 1005.82 1006.76 1007.54 1008.19 1008.81 1009.37
1008.05 1007.87 1007.54 1006.88 1005.75 1004.67 1003.94 1003.41 1002.97 1002.72 1002.68 1002.93 1002.88 1002.96 1001.81 1002.54 1003.08 1003.27 1003.56 1003.66 1003.79 1003.92 1004.39 1005.36 1004.80 1004.15 1004.06 1003.66 1003.21 1002.48 1001.68 1002.26 1002.94 1003.83 1003.36 1003.15 1003.38 1003.96 1004.86 1005.95 1006.84 1007.60 1008.23 1008.95
1008.79 1008.88 1008.63 1007.98 1006.63 1005.34 1003.48 1002.50 1002.41 1002.72 1002.79 1002.44 1002.90 1003.05 1003.04 1003.42 1003.72 1003.75 1003.93 1003.98 1004.07 1004.09 1004.44 1004.87 1005.48 1004.72 1004.09 1003.65 1002.78 1002.22 1001.43 1001.64 1002.08 1002.47 1002.92 1003.52 1003.06 1003.36 1004.44 1005.44 1006.31 1007.29 1008.15 1008.96
1008.70 1009.54 1009.52 1009.15 1007.96 1006.10 1003.87 1003.19 1003.14 1002.84 1003.65 1003.27 1003.34 1003.56 1003.50 1003.76 1003.68 1004.39 1004.48 1004.56 1004.80 1004.90 1005.03 1004.91 1004.92 1004.98 1005.02 1004.41 1003.70 1002.74 1002.37 1001.83 1000.67 1000.75 1001.34 1002.47 1003.21 1003.66 1003.96 1004.85 1005.99 1007.25 1008.38 1009.64
1008.65 1009.05 1009.65 1009.35 1008.61 1006.69 1004.52 1003.31 1002.64 1002.58 1003.47 1003.55 1003.52 1003.73 1003.80 1003.67 1004.66 1005.24 1005.50 1005.66 1005.91 1005.88 1005.82 1005.72 1005.59 1005.22 1004.99 1004.97 1004.45 1003.75 1003.22 1002.65 1002.42 1002.14 1002.05 1002.25 1002.75 1003.60 1004.24 1005.47 1006.66 1007.83 1009.01 1010.27
1008.89 1009.46 1009.60 1009.52 1008.62 1006.70 1004.55 1003.43 1002.92 1003.03 1003.83 1003.24 1003.50 1003.73 1003.99 1004.55 1005.28 1005.52 1006.00 1006.38 1006.62 1006.67 1006.43 1006.06 1005.48 1005.43 1005.55 1005.50 1005.31 1004.86 1004.48 1004.32 1004.25 1004.00 1003.29 1003.10 1003.48 1004.27 1005.43 1006.52 1007.76 1008.59 1009.79 1011.02
1008.89 1009.17 1009.24 1009.21 1008.39 1006.90 1004.34 1003.47 1003.77 1003.77 1003.34 1003.54 1003.90 1004.20 1004.70 1005.10 1005.55 1006.13 1006.84 1007.26 1007.41 1007.32 1006.97 1006.66 1006.35 1006.02 1005.81 1005.76 1005.56 1005.40 1005.36 1005.27 1004.92 1004.75 1004.85 1004.64 1004.53 1005.25 1006.14 1007.10 1008.80 1009.62 1010.22 1011.38
1008.34 1007.43 1007.59 1007.58 1006.69 1005.29 1004.54 1004.09 1003.65 1003.38 1003.65 1004.20 1004.54 1005.02 1005.19 1005.78 1006.48 1006.98 1007.76 1008.34 1008.68 1008.94 1008.99 1008.75 1008.15 1007.64 1007.17 1006.62 1006.38 1006.22 1006.22 1006.12 1005.95 1005.68 1005.81 1006.30 1006.44 1006.73 1007.19 1008.15 1009.12 1010.51 1011.21 1012.31
1007.97 1007.35 1006.92 1006.80 1005.75 1005.65 1005.07 1004.21 1003.93 1004.32 1004.29 1004.96 1005.38 1005.78 1006.09 1006.88 1007.51 1008.06 1008.44 1008.96 1009.34 1009.74 1009.70 1009.58 1009.24 1008.73 1008.25 1007.74 1007.57 1007.62 1007.30 1006.97 1006.94 1007.10 1007.37 1007.49 1007.81 1008.40 1008.96 1009.47 1010.25 1011.04 1012.20 1013.02
1008.31 1007.75 1007.34 1006.69 1005.96 1005.54 1005.24 1004.84 1004.91 1004.96 1005.33 1006.06 1006.75 1007.17 1007.54 1007.96 1008.82 1009.23 1009.61 1010.01 1010.37 1010.47 1010.23 1010.18 1010.18 1009.87 1009.31 1009.01 1008.74 1008.55 1008.40 1008.22 1008.19 1008.47 1008.80 1009.40 1009.46 1009.79 1010.59 1011.44 1012.02 1011.98 1013.44 1014.17
1008.42 1008.07 1008.02 1007.59 1007.19 1006.85 1006.32 1005.77 1005.83 1005.59 1006.47 1006.83 1007.33 1008.17 1008.88 1009.29 1009.85 1010.11 1010.77 1011.19 1011.40 1011.44 1011.26 1010.98 1011.14 1010.90 1010.42 1009.91 1009.62 1009.49 1009.38 1009.51 1009.54 1009.74 1009.99 1010.43 1010.99 1011.21 1011.69 1012.36 1013.42 1014.65 1014.46 1015.51
Wind_Speed
5 4 13 11 11 10 9 8 11 1 5 7 9 14 9 10 8 10 10 9 8 7 8 9 12 12 11 9 10 10 8 7 6 2 2 1 1 2 1 4 13 15 16 13
4 18 11 10 9 10 12 14 20 12 11 13 13 20 10 8 8 11 12 10 7 11 10 10 12 12 12 12 10 11 8 9 6 4 2 2 2 2 2 1 14 13 14 13
16 6 17 13 14 15 15 18 14 16 14 16 12 20 8 7 7 13 18 9 7 19 18 15 16 13 11 12 11 12 10 9 6 6 3 1 3 3 2 2 8 10 13 12
14 16 17 14 18 16 18 17 17 15 10 9 6 15 9 9 15 14 17 15 8 14 17 16 16 14 13 10 8 11 11 9 7 8 6 6 6 6 4 4 5 7 10 10
12 8 20 22 19 17 13 17 15 16 9 4 4 5 5 4 9 15 16 17 9 16 21 21 19 15 12 11 10 9 11 10 9 7 7 5 6 4 6 5 11 8 8 11
13 7 4 7 8 15 12 14 15 13 5 10 8 6 6 5 8 8 16 17 4 16 18 15 12 13 11 9 9 10 11 11 10 9 8 7 8 9 8 9 9 8 7 8
8 22 16 9 7 7 6 3 4 3 2 6 6 5 13 10 12 17 19 16 15 15 20 18 19 16 15 15 12 10 12 11 11 10 10 10 9 10 12 12 9 11 8 7
8 7 14 7 19 6 9 10 7 9 5 5 7 6 6 5 7 13 11 9 3 13 17 20 19 17 17 16 14 13 12 11 11 11 9 10 13 8 8 10 10 9 10 9
6 7 3 5 12 15 9 8 8 6 4 3 4 5 8 5 11 17 13 18 8 14 15 18 17 16 17 17 17 15 14 12 12 11 10 10 11 11 10 11 10 9 9 8
5 9 5 4 4 12 10 6 4 3 8 6 4 4 6 3 11 20 16 14 10 4 9 15 16 17 15 15 15 14 14 14 13 11 11 10 11 11 10 10 11 10 9 10
8 4 4 1 2 4 5 10 1 4 5 10 1 6 6 6 8 9 14 11 15 6 5 7 14 15 15 14 15 15 14 14 14 12 11 11 11 11 10 11 10 12 12 13
8 7 4 5 4 4 4 4 6 5 2 3 5 6 2 6 6 8 8 15 14 12 12 12 11 12 16 16 15 16 15 15 14 14 12 12 11 11 12 11 12 11 12 9
9 6 5 4 3 7 6 6 5 4 4 5 4 4 3 12 12 7 8 13 17 18 15 14 5 6 8 16 15 15 16 16 15 14 14 14 14 13 13 12 12 11 12 13
6 6 3 2 2 1 3 7 9 5 4 1 12 6 4 4 9 6 10 11 5 12 13 14 8 8 4 5 10 17 17 17 17 17 15 15 15 15 14 12 12 12 11 11
6 3 5 6 2 3 3 3 5 3 2 1 3 1 5 5 11 1 10 8 12 11 11 13 13 10 10 7 8 8 10 16 15 16 18 18 14 14 13 13 13 12 13 12
4 3 2 2 6 7 2 4 3 3 4 11 9 0 3 3 12 4 4 10 10 10 10 11 12 12 11 12 3 9 11 10 13 17 18 17 17 15 16 15 14 13 14 13
6 4 4 1 9 4 3 1 5 5 9 13 3 2 7 13 13 9 4 5 7 8 8 9 9 9 8 9 10 8 10 8 12 13 13 16 17 18 17 16 16 16 14 12
2 3 3 4 6 1 3 10 2 12 9 11 10 7 10 14 10 8 5 5 5 8 8 8 5 5 9 9 12 11 5 12 12 12 13 14 16 17 15 15 15 13 7 7
6 2 0 1 1 6 5 6 4 3 5 5 9 7 6 6 4 7 7 8 6 7 8 8 9 7 6 10 11 12 9 10 16 19 17 15 14 13 15 15 13 7 9 9
6 4 4 2 1 3 2 5 6 4 3 2 7 6 7 7 5 2 4 8 6 7 8 10 9 8 10 10 9 9 11 13 12 10 6 7 9 11 9 9 11 7 10 11
4 1 7 2 1 7 6 6 6 3 4 1 5 7 7 5 3 1 7 9 7 7 9 10 10 10 10 10 7 8 8 9 8 7 6 8 9 11 11 12 10 13 14 14
7 6 4 3 2 7 4 2 1 3 3 4 5 5 7 5 6 7 8 8 9 11 14 14 12 10 9 10 8 7 7 6 7 9 9 8 11 10 10 16 12 12 14 16
4 6 6 7 7 4 5 4 2 4 2 5 6 4 6 6 5 7 7 7 8 9 10 11 10 10 9 10 10 7 7 6 6 9 12 11 12 12 12 14 15 11 12 11
6 4 1 4 3 3 4 5 5 3 8 6 7 8 7 7 8 7 7 8 9 7 8 9 10 8 8 10 10 8 8 8 9 10 11 11 12 13 12 10 10 11 10 11
4 3 3 3 3 1 4 4 3 10 10 11 11 10 9 9 8 6 8 10 8 8 10 9 9 9 8 8 8 8 7 9 11 11 12 11 12 14 14 13 10 12 12 13
4 5 2 1 7 3 3 10 9 11 7 7 9 10 10 9 7 7 8 8 8 8 9 9 9 8 9 8 8 8 8 8 9 10 9 10 9 12 13 15 17 29 28 31
Wind_Direction
223 181 218 195 212 231 239 248 251 190 237 292 264 267 264 286 318 292 270 226 239 177 159 142 141 143 141 152 151 150 149 154 141 137 153 190 168 158 52 163 150 154 146 154
259 236 209 212 221 236 237 248 260 275 265 260 272 270 240 264 274 292 277 248 203 144 149 153 150 154 164 160 162 147 155 154 157 153 155 163 159 141 120 107 144 141 134 160
223 232 197 202 218 227 236 236 249 249 267 266 271 276 290 295 296 303 296 241 175 164 168 169 172 172 163 162 167 151 153 154 146 148 152 168 135 125 141 133 121 133 140 154
247 238 245 222 223 208 237 229 242 250 242 254 182 280 261 272 283 280 279 283 199 179 175 168 175 174 171 165 167 148 147 148 155 155 164 183 184 169 165 160 109 117 136 135
225 199 202 225 223 212 233 245 234 240 240 221 220 270 320 178 272 272 273 277 186 183 179 179 181 166 162 157 172 154 144 149 153 161 167 171 154 152 148 143 145 138 135 141
237 298 211 231 228 229 232 250 264 243 211 244 171 176 255 209 239 277 286 269 222 187 188 176 154 148 155 161 168 153 156 154 156 158 157 147 145 139 146 154 154 154 146 141
259 253 260 256 281 261 183 170 246 254 234 238 195 220 261 266 266 262 263 268 284 206 170 162 160 164 165 171 172 162 165 162 162 160 162 148 146 153 152 156 156 151 154 154
191 289 211 217 213 197 207 177 177 209 188 242 207 237 247 244 280 292 258 258 193 163 173 166 164 166 171 171 175 169 169 165 171 167 161 157 157 157 160 163 159 162 162 158
206 246 266 226 191 185 227 225 194 178 181 124 223 283 302 13 2 345 31 2 217 174 173 169 161 172 172 173 179 170 169 165 177 176 170 162 165 165 166 167 171 167 158 150
260 262 257 295 123 221 201 175 207 243 194 235 228 235 246 359 48 327 2 6 40 332 181 170 171 173 176 173 174 171 172 169 172 178 179 170 173 171 169 170 172 167 163 161
358 208 261 296 26 208 174 226 178 130 150 217 144 263 203 162 104 315 1 349 7 6 225 246 185 175 171 172 175 174 174 172 175 177 181 176 175 170 170 180 177 174 174 183
334 300 222 207 216 230 184 205 158 153 171 154 154 267 96 180 162 133 351 330 342 349 338 197 192 190 170 174 179 179 177 181 183 179 178 183 181 178 176 182 183 179 176 181
317 342 272 173 338 18 31 17 16 126 124 178 148 250 88 88 56 37 52 334 6 19 21 23 92 183 228 176 178 183 183 181 180 184 181 184 187 187 188 188 187 188 182 185
291 260 3 37 190 212 359 33 35 51 64 274 218 224 122 121 120 15 349 138 253 9 23 42 37 51 211 237 239 185 189 184 179 183 188 187 188 189 189 186 190 195 193 185
151 274 333 296 353 210 109 14 3 123 234 92 302 104 204 179 145 189 346 14 115 38 18 15 33 26 13 229 198 248 217 188 186 188 190 193 187 185 184 188 191 193 196 199
301 272 328 282 351 38 308 291 271 245 132 289 261 281 25 104 95 108 45 58 63 82 52 17 29 28 346 358 271 211 204 222 199 194 198 190 187 182 189 189 191 191 198 201
341 346 359 321 336 302 320 5 216 222 172 194 274 25 92 100 97 98 48 61 56 40 58 97 28 12 10 7 336 334 201 193 210 226 207 194 188 190 190 188 193 198 195 193
310 341 10 286 340 254 274 308 51 97 53 86 93 75 83 117 113 99 67 52 52 31 31 38 45 27 355 2 353 348 338 203 208 215 211 211 196 188 186 188 191 191 182 142
168 141 318 150 280 292 323 20 15 324 53 84 96 79 67 150 112 49 37 83 61 23 16 12 6 32 21 10 352 347 353 298 204 206 201 203 200 196 184 186 183 125 123 115
185 143 130 70 160 240 220 316 344 308 112 177 112 92 62 51 73 299 58 92 61 38 19 1 3 9 20 12 358 9 6 11 22 7 226 198 190 191 176 123 115 99 106 107
168 69 197 175 233 286 271 309 345 79 223 160 108 94 86 80 134 337 86 69 54 29 14 357 4 9 15 5 4 29 17 27 21 16 44 76 83 101 108 103 106 113 110 107
190 157 170 134 135 256 280 354 143 244 314 85 109 126 97 81 51 78 71 62 39 22 11 2 351 355 10 10 357 31 37 17 52 67 54 70 100 103 108 111 108 110 115 111
224 179 170 170 204 266 359 277 131 335 237 127 104 83 92 66 46 37 46 49 50 36 22 355 338 342 1 18 13 28 25 28 53 77 84 75 79 92 103 107 111 108 110 106
317 332 261 130 205 72 341 11 56 308 102 100 87 82 71 80 35 32 23 27 32 32 30 15 355 0 8 17 27 31 38 57 67 75 76 86 91 90 87 95 100 102 104 108
254 298 337 304 14 289 41 42 338 94 91 88 70 63 64 76 51 33 25 22 15 15 20 21 7 360 13 27 36 37 55 75 80 80 84 77 80 83 81 74 73 90 77 95
1 7 11 217 353 322 339 330 300 91 83 88 100 75 64 73 66 69 51 29 20 16 20 33 16 12 16 32 45 52 70 83 92 90 90 95 92 97 98 96 91 83 92 92